www.pogodaiklimat.ru

Погода и климат >> Архив погоды >> КНДР >> Хыйчхон


ПОГОДА в Хыйчхоне

  • Прогноз погоды в Хыйчхоне
  • Монитор погоды в Хыйчхоне

АРХИВ ПОГОДЫ в Хыйчхоне

Время (UTC), дата Ветер
(напр.,м/с)
 
Видим.   Явления Облачность Т
(С)
Тd
(С)
f
(%)
Тe
(С)
Тes
(С)
Комфортность P
(гПа)
Po
(гПа)
Тmin
(С)
Tmax
(С)
R
(мм)
R24
(мм)
S
(см)
00 16.04 штиль 0 20 км ясно +7.1 +4.6 84 +6 +16 опасность
простуды
1018.7 999.8 +1.6
03 16.04 З 1 20 км 10/0 1500 м
[Ac trans]
+16.0 +10.1 68 +17 +25 1016.5 998.2
06 16.04 ЮЗ 3 20 км 10/0 1500 м
[Ac trans Cs]
+18.2 +9.8 58 +19 +25 1014.3 996.2
09 16.04 СЗ 1 20 км 10/4 600 м
[Sc diur, vesp Ci sp]
+17.2 +6.5 49 +18 +19 1013.8 995.7
12 16.04 штиль 0 20 км 3/0
[Ci sp]
+10.6 +5.6 71 +10 +10 1016.3 997.7 +19.5
15 16.04 штиль 0 20 км ясно +5.9 +2.7 80 +5 +5 1017.0 998.1
18 16.04 штиль 0 20 км ясно +2.4 -0.2 83 +1 +1 1016.5 997.3
21 16.04 штиль 0 25 км ясно +0.7 -1.9 83 -0 -0 1015.1 995.9
00 17.04 штиль 0 25 км ясно +5.5 +2.7 82 +5 +15 опасность
простуды
1014.9 996.0 -0.7
03 17.04 ЮЗ 2 25 км 6/0 1500 м
[Ac trans Ci sp]
+17.2 +7.8 54 +18 +30 опасность
простуды
1011.5 993.4
06 17.04 З 4 20 км 10/3 600 м
[Sc diur, vesp Ac trans]
+19.6 +8.1 47 +20 +23 1008.3 990.4
09 17.04 ЮЗ 3 20 км 6/0
[Ci sp]
+19.6 +9.8 53 +21 +22 комфорт 1007.6 989.7
12 17.04 СЗ 2 20 км 3/0
[Ci sp]
+13.5 +10.6 83 +13 +13 1008.8 990.5 +21.2
15 17.04 штиль 0 20 км 3/0
[Ci sp]
+9.7 +6.7 82 +9 +9 1010.1 991.5
18 17.04 штиль 0 20 км 10/10 600 м
[Sc diur, vesp]
+9.4 +6.7 83 +9 +9 1009.0 990.4
21 17.04 штиль 0 5000 м слаб. дождь 10/0 600 м
[As op]
+8.9 +6.1 83 +8 +8 1009.1 990.5 1
00 18.04 штиль 0 4000 м слаб. дождь 10/0 600 м
[As op]
+9.3 +6.7 84 +9 +11 1010.5 991.9 +8.8 3
03 18.04 штиль 0 10 км 10/10 600 м
[Sc diur, vesp]
+11.1 +8.2 82 +11 +11 1011.8 993.3 0.0
06 18.04 СВ 3 20 км 6/4 600 м
[Sc diur, vesp Ci sp]
+14.4 +11.6 83 +13 +19 1011.5 993.2 0.0
09 18.04 СВ 3 20 км 8/0
[Ci sp]
+14.8 +8.9 68 +14 +15 1011.6 993.3
12 18.04 СВ 4 20 км 5/3 600 м
[Sc diur, vesp Ci sp]
+11.3 +5.4 67 +9 +9 1014.4 995.9 +16.2 0.0
15 18.04 С 2 20 км 3/3 600 м
[Sc diur, vesp]
+7.0 +3.0 76 +5 +5 1015.7 996.9
18 18.04 штиль 0 20 км 9/3 600 м
[Sc diur, vesp Ci sp]
+3.9 +0.9 81 +3 +3 1018.4 999.3
21 18.04 штиль 0 20 км 10/3 600 м
[Sc diur, vesp Ac trans Ci sp]
+2.4 -0.2 83 +1 +1 1019.8 1000.6
00 19.04 штиль 0 20 км 10/0
[Ci sp]
+8.7 +5.4 80 +8 +16 1020.1 1001.3 +1.9
03 19.04 штиль 0 20 км ясно +14.5 +6.7 59 +14 +37 опасность
простуды
1018.7 1000.3
06 19.04 штиль 0 25 км ясно +19.6 +9.3 51 +20 +37 опасность
простуды
1015.2 997.2
09 19.04 ЮЗ 2 25 км ясно +20.2 +6.8 42 +22 +23 комфорт 1013.5 995.5
12 19.04 ЮЗ 1 20 км ясно +14.1 +5.9 58 +15 +15 1015.6 997.2 +20.8
15 19.04 штиль 0 20 км 3/0
[Ci sp]
+8.3 +4.6 77 +8 +8 1017.1 998.3
18 19.04 штиль 0 20 км 3/0
[Ci sp]
+4.9 +2.1 82 +4 +4 1016.4 997.4
21 19.04 штиль 0 20 км 3/0
[Ci sp]
+2.5 -0.2 82 +2 +2 1016.5 997.4
00 20.04 штиль 0 20 км 10/10 600 м
[Sc diur, vesp]
+6.9 +3.6 79 +6 +6 1016.5 997.6 +1.4
03 20.04 штиль 0 15 км слаб. дождь 10/0 600 м
[As op]
+8.5 +5.4 81 +8 +12 1015.9 997.2 0.1
06 20.04 штиль 0 15 км слаб. дождь 10/0 600 м
[As op]
+8.4 +5.4 81 +8 +11 1015.2 996.5 3
09 20.04 штиль 0 10 км слаб. дождь 10/0 600 м
[As op]
+8.4 +5.4 81 +8 +8 1015.2 996.5 3
12 20.04 штиль 0 10 км слаб. дождь 10/0 600 м
[As op]
+8.3 +5.6 83 +8 +8 1015.4 996.7 +9.4 8
15 20.04 штиль 0 12 км {дождь} 10/10 600 м
[Sc diur, vesp]
+8.3 +5.6 83 +8 +8 1015.2 996.5 0.0
18 20.04 штиль 0 15 км 10/3 600 м
[Sc diur, vesp Ac trans]
+7.8 +5.1 83 +7 +7 1015.2 996.4 0.0
21 20.04 штиль 0 8000 м 10/10 600 м
[Sc diur, vesp]
+7.2 +4.5 83 +6 +6 1014.5 995.7
00 21.04 штиль 0 10 км 10/10 600 м
[Sc diur, vesp]
+8.6 +5.8 83 +8 +8 1015.7 997.0 +6.9 0.0
03 21.04 штиль 0 20 км 6/0
[Ci sp]
+14.9 +12.0 83 +15 +35 опасность
простуды
1014.3 996.0
06 21.04 штиль 0 20 км ясно +21.4 +13.2 60 +24 +41 комфорт 1011.2 993.4
09 21.04 ЮЗ 2 15 км ясно +20.8 +12.7 60 +24 +25 комфорт 1011.1 993.2
12 21.04 ЮЗ 2 10 км ясно +15.8 +12.0 78 +16 +16 1013.5 995.3 +21.7
15 21.04 штиль 0 10 км ясно +11.1 +7.8 80 +11 +11 1015.2 996.6
18 21.04 штиль 0 10 км ясно +8.2 +5.1 81 +7 +7 1016.0 997.2
21 21.04 штиль 0 10 км 8/0 1500 м
[Ac trans]
+6.7 +3.9 82 +6 +6 1016.6 997.7
00 22.04 штиль 0 15 км 10/0 1500 м
[Ac trans Ci sp]
+10.5 +7.5 82 +10 +17 1016.7 998.1 +6.4
03 22.04 штиль 0 15 км 10/0 1500 м
[Ac trans Ci sp]
+19.2 +13.0 67 +20 +36 опасность
простуды
1015.5 997.4
06 22.04 ЮЗ 2 10 км 10/0 1500 м
[Ac trans Ci sp]
+24.9 +14.6 53 +28 +35 жарко 1012.3 994.6
09 22.04 ЮЗ 2 10 км 10/0 1500 м
[Ac trans Ci sp]
+23.6 +15.3 60 +27 +27 жарко 1011.5 993.8
12 22.04 ЮЗ 2 15 км ясно +19.8 +12.9 64 +22 +22 комфорт 1013.4 995.4 +25.3
15 22.04 штиль 0 15 км ясно +14.3 +9.9 75 +14 +14 1014.7 996.4
18 22.04 штиль 0 15 км 10/0
[Ci sp]
+10.2 +6.8 79 +10 +10 1015.7 997.1
21 22.04 штиль 0 20 км 10/0 1500 м
[Ac trans Ci sp]
+8.5 +5.4 81 +8 +8 1015.4 996.7

 

Местоположение метеостанции Хыйчхон (КНДР): широта 40.17 долгота 126.25 высота над уровнем моря 155 м.

В архиве по умолчанию представлена погода в Хыйчхоне за последнюю неделю. Архивные данные за месяц целиком и за предыдущие месяцы, начиная с января 2011 года, Вы можете получить, выбрав интересующий диапазон дат из раскрывающегося списка и нажав кнопку "Ввод!".


*Определитесь, кто Вы:
робот инопланетянин человек

Внимание! Время в таблицах - всемирное. Для получения местного времени необходимо прибавить поправку, которая равна 9 ч.

Смотрите также архив погоды в соседних городах и на ближайших метеорологических станциях:

Погода в Анджу (КНДР) (80 км)
Погода в Кусонге (КНДР) (88 км)
Погода в Джангджине (КНДР) (88 км)
Погода в Канге (КНДР) (94 км)
Погода в Цзиане (Цзяньси, Китай) (104 км)
Погода в Янгдоке (КНДР) (111 км)
Погода в Хамхыне (КНДР) (114 км)
Погода на Плотине Сапунг (КНДР) (116 км)
Погода в Пхеньяне (КНДР) (133 км)
Погода в Куаньдяне (Ляонин, Китай) (139 км)

Пояснения к столбцам:

Ветер - указаны скорость ветра в м/с - средняя за 10 мин, порывы в срок и между сроками (в фигурных скобках) и направление, откуда дует ветер: С - северный, СВ - северо-восточный, В - восточный, ЮВ - юго-восточный, Ю - южный, ЮЗ - юго-западный, З - западный, СЗ - северо-западный.
Видимость - горизонтальная дальность видимости в метрах или километрах. При видимости от 1 до 10 км при отсутствии осадков обычно наблюдается дымка, при ухудшении видимости до 1 км и менее - туман. В сухую погоду видимость может ухудшаться дымом, пылью или мглою.
Явления - указаны атмосферные явления, наблюдавшиеся в срок или в последний час перед сроком; фигурными скобками обозначены явления, наблюдавшиеся между сроками (за 1-3 часа до срока); квадратными скобками обозначены град или гололедные отложения с указанием их диаметра в мм.
Облачность - указаны через наклонную черту общая и нижняя облачность в баллах и высота нижней границы облаков в метрах; квадратными скобками обозначены формы облаков: Ci - перистые, Cs - перисто-слоистые, Cc - перисто-кучевые, Ac - высококучевые, As - высокослоистые, Sc - слоисто-кучевые, Ns - слоисто-дождевые, Cu - кучевые, Cb - кучево-дождевые. Подробнее классификацию облаков см. в Атласе облаков (PDF).
T - Температура воздуха - температура, измеренная на высоте 2 м над землей.
Td - Температура точки росы - температура, при понижении до которой содержащийся в воздухе водяной пар достигнет насыщения.
f - Относительная влажность воздуха - влажноcть воздуха, измеренная на высоте 2 м над землей.
Te - Эффективная температура - температура, которую ощущает одетый по сезону человек в тени. Характеристика душности погоды. При расчете учитывается влияние влажности воздуха и скорости ветра на теплоощущения человека.
Tes - Эффективная температура на солнце - температура, которую ощущает человек, с поправкой на солнечный нагрев. Характеристика знойности погоды. Зависит от высоты солнца над горизонтом, облачности и скорости ветра. Ночью, в пасмурную погоду, а также при ветре 12 м/с и более поправка равна нулю.
P - Атмосферное давление - приведенное к уровню моря атмосферное давление.
Po - Атмосферное давление - измеренное на уровне метеостанции атмосферное давление.
Tmin - Минимальная температура - минимум температуры воздуха на высоте 2 м над землей.
Tmax - Максимальная температура - максимум температуры воздуха на высоте 2 м над землей.
R - Количество осадков - Количество выпавших осадков за период времени, мм. При наведении курсора мыши на число - период времени, за который выпало указанное количество осадков.
R24 - Количество осадков - Количество выпавших осадков за 24 часа, мм.
S - Снежный покров - Высота снежного покрова, см. При наведении курсора мыши на число - состояние снежного покрова и степень покрытия местности в баллах.